Lagrange, Indiana
Current Conditions -  °F | °C
As of 6:34 PM on Saturday 20 Dec 2014 (Local Time) from KIRS Reporting Station
Haze Haze  
Wind Chill: 28°   Ceiling: 2100
Heat Index: 28°   Visibility: 5mi
Dew Point: 27°   Wind: 0mph
Humidity: 93%   Direction: NA
Pressure: 30.26"   Gusts: NA
Location:  41.64°N, 85.42°W
Report Text: KIRS 202334Z AUTO 00000KT 5SM BR BKN021 OVC031 M02/M03 A3026 RMK AO2
Loading
Personal Weather Stations






























Interactive Weather Map New forecast layout! Learn more

10-Day Weather Forecast

Advertisements
Track Severe Weather on mobile